sat.trackr.live / text

‹ back to catalog

NUSAT-33 (ALBANIA-2)

NORAD 55047 · 2023-001AQ

PAYLOAD ACTIVE UNKNOWN

§ Identity

Operator
Country
ARGN
Launch date
2023-01-03
Launch site
AFETR
Launch vehicle
Mass (kg)
RCS (m²)

External: N2YO · Heavens-Above · Gunter

§ Orbital elements

Epoch: 2026-09-21T21:34:55.186176Z

Period
94.16 min
Inclination
97.2974°
Eccentricity
0.0007742
Mean motion
15.29268438 rev/d
Perigee alt
472.7 km
Apogee alt
483.3 km
Semi-major
6,856.1 km
B*
2.2147e-4
RAAN
323.9636°
Arg perigee
70.0825°
Mean anomaly
290.1249°
Rev number
20,708

§ Raw data

NUSAT-33 (ALBANIA-2)1 55047U 23001AQ  26264.89924984  .00006219  00000+0  22147-3 0  99962 55047  97.2974 323.9636 0007742  70.0825 290.1249 15.29268438207087

JSON: /api/v1/satellites/55047 · /tle

For live sub-satellite position, see the globe view (requires WebGL).

§ Visibility from observer

Set your observer location to see the next 7 days of passes ≥ 10°. The values pass through the URL so the page stays shareable.

No JS? Fill the form by hand. The geolocation button needs JavaScript.